[[{"header":{"parameterUnit":"m.s-1","parameterCategory":2,"la1":30.2991,"la2":30.254,"lo1":-89.0895,"lo2":-89.0444,"dy":0.0017,"dx":0.0017,"nx":28,"ny":28,"refTime":"2023-10-03T09:00:00:Z","depth":"0","parameterNumber":2,"parameterNumberName":"U-component_of_CURRENTS"},"data":[0,0,0,0,0,0,0,0,0,0,0,0,0,0,0,0,0,0,0,0,0,0,0,0,0,0,0,0,0,0,0,0,0,0,0,0,0,0,0,0,0,0,0,0,0,0,0,0,0,0,0,0,0,0,0,0,0,0,-0.2853,-0.2854,0,-0.2875,-0.2875,-0.2875,-0.2795,-0.2793,-0.279,-0.2788,-0.273,-0.2731,-0.2731,0,0,0,0,0,0,0,0,0,0,0,0,0,-0.2739,-0.2741,-0.2853,-0.2854,-0.2854,-0.2875,-0.2875,-0.2875,-0.2795,-0.2792,-0.279,-0.2787,-0.273,-0.273,-0.2731,0,0,0,0,0,0,0,0,0,0,0,0,0,-0.2775,-0.2742,-0.2853,-0.2819,-0.2816,-0.2875,-0.2875,-0.2875,-0.2796,-0.2792,-0.2789,-0.2786,-0.273,-0.273,-0.2731,-0.2799,0,0,-0.2733,-0.2733,0,0,0,0,0,0,0,0,-0.2773,-0.2779,-0.2823,-0.2821,-0.2819,-0.2831,-0.2814,-0.2847,-0.2796,-0.28,-0.2788,-0.2785,-0.2761,-0.2759,-0.2767,-0.2797,-0.2794,-0.2733,-0.2734,-0.2734,-0.2734,0,0,0,0,0,0,0,-0.277,-0.2777,-0.2859,-0.2824,-0.2821,-0.2802,-0.2803,-0.282,-0.2795,-0.28,-0.2795,-0.2803,-0.2758,-0.2767,-0.2765,-0.2793,-0.2733,-0.2734,-0.2734,-0.2734,-0.2819,-0.2821,0,0,0,0,0,0,-0.2778,-0.2776,-0.2858,-0.286,-0.2791,-0.2807,-0.2808,-0.2828,-0.2796,-0.279,-0.2806,-0.2799,-0.2767,-0.2764,-0.2762,-0.2786,-0.2734,-0.2734,-0.2735,-0.2818,-0.282,-0.2822,0,0,0,0,0,0,-0.2776,-0.2786,-0.2857,-0.2819,-0.2827,-0.2812,-0.2836,-0.283,-0.283,-0.2802,-0.2792,-0.2809,-0.2764,-0.2761,-0.2773,-0.2784,-0.2735,-0.2735,-0.2815,-0.2818,-0.2821,-0.2867,0,0,0,0,0,0,-0.2773,-0.2785,-0.2802,-0.2821,-0.283,-0.2896,-0.2839,-0.2833,-0.2842,-0.2833,-0.2803,-0.2794,-0.2762,-0.2773,-0.2774,-0.2784,-0.2736,-0.2813,-0.2817,-0.282,-0.2863,-0.2871,-0.2878,0,0,0,0,0,-0.2769,-0.2814,-0.2803,-0.2813,-0.2854,-0.2899,-0.2902,-0.2877,-0.2845,-0.2861,-0.2833,-0.2794,-0.2795,-0.2776,-0.2776,-0.2787,-0.2811,-0.2816,-0.282,-0.286,-0.287,-0.2878,0,0,0,0,0,0,-0.2772,-0.2811,-0.2799,-0.2852,-0.2872,-0.2885,-0.2901,-0.289,-0.2886,-0.2867,-0.2828,-0.282,-0.2831,-0.2819,-0.2799,-0.2825,-0.2795,-0.2799,-0.2825,-0.2834,-0.2841,-0.2808,-0.2736,0,0,0,0,0,-0.2785,-0.282,-0.2851,-0.2887,-0.2903,-0.2904,-0.2917,-0.2906,-0.2907,-0.29,-0.288,-0.2861,-0.2858,-0.2851,-0.285,-0.2877,-0.2842,-0.2884,-0.2892,-0.2898,-0.2874,-0.2846,-0.2847,-0.2836,-0.2836,-0.2835,0,0,-0.2794,-0.2819,-0.2837,-0.2888,-0.2897,-0.2923,-0.2902,-0.2932,-0.2936,-0.2899,-0.2897,-0.2892,-0.2874,-0.2888,-0.2893,-0.2873,-0.289,-0.2903,-0.2908,-0.288,-0.285,-0.285,-0.2851,-0.2838,-0.2838,-0.2837,0,0,-0.2821,-0.2854,-0.2884,-0.2909,-0.2938,-0.2947,-0.2959,-0.298,-0.297,-0.2994,-0.2955,-0.2954,-0.2965,-0.2938,-0.2929,-0.2986,-0.2934,-0.2997,-0.2998,-0.2973,-0.2972,-0.2971,-0.2948,-0.2945,-0.2994,-0.2994,-0.2994,0,-0.2821,-0.2857,-0.2899,-0.2929,-0.2936,-0.2958,-0.2973,-0.2994,-0.3008,-0.3001,-0.2995,-0.2989,-0.2979,-0.2968,-0.2981,-0.2997,-0.2975,-0.2962,-0.2978,-0.2976,-0.2974,-0.2951,-0.2946,-0.2997,-0.2997,-0.2996,-0.2996,0,-0.2858,-0.2882,-0.2906,-0.2938,-0.2968,-0.299,-0.3021,-0.3044,-0.3041,-0.304,-0.3042,-0.3037,-0.3017,-0.3033,-0.3021,-0.301,-0.2998,-0.2993,-0.2946,-0.2977,-0.2952,-0.2946,-0.3001,-0.3,-0.2999,-0.2999,0,0,-0.284,-0.2912,-0.2912,-0.2915,-0.2963,-0.2989,-0.3022,-0.3041,-0.3044,-0.3064,-0.3052,-0.3058,-0.3044,-0.3033,-0.3025,-0.3007,-0.2992,-0.2994,-0.2992,-0.2954,-0.2935,-0.2861,-0.2848,-0.2988,-0.2987,-0.2986,-0.2929,0,-0.2828,-0.2869,-0.2912,-0.2932,-0.2944,-0.2985,-0.3012,-0.304,-0.3055,-0.3066,-0.3058,-0.3055,-0.3049,-0.3042,-0.3024,-0.3002,-0.2976,-0.3007,-0.2923,-0.2921,-0.2836,-0.2837,-0.2724,-0.2657,-0.2923,-0.2922,-0.2922,0,-0.2811,-0.2843,-0.286,-0.2904,-0.2915,-0.2937,-0.2965,-0.2998,-0.3032,-0.3046,-0.3041,-0.3042,-0.3023,-0.3021,-0.2965,-0.2987,-0.2954,-0.2936,-0.2934,-0.2833,-0.2835,-0.2667,-0.2636,-0.2619,-0.2912,-0.2913,-0.2913,0,-0.2727,-0.2788,-0.2791,-0.2807,-0.2881,-0.289,-0.2924,-0.297,-0.2985,-0.3022,-0.3029,-0.3017,-0.3003,-0.2968,-0.2935,-0.2948,-0.2873,-0.2887,-0.2785,-0.2781,-0.2646,-0.2631,-0.2563,-0.2828,-0.2828,-0.2828,-0.2829,0,-0.2667,-0.2667,-0.2753,-0.2754,-0.2762,-0.2836,-0.2843,-0.289,-0.2937,-0.294,-0.2996,-0.2985,-0.2986,-0.2954,-0.2925,-0.2827,-0.2858,-0.2764,-0.275,-0.2664,-0.2652,-0.2599,-0.2626,-0.2826,-0.2827,-0.2827,-0.2828,0,-0.2556,-0.2613,-0.2619,-0.2695,-0.2716,-0.2717,-0.2784,-0.2791,-0.2865,-0.2873,-0.2882,-0.2938,-0.2901,-0.2891,-0.2839,-0.2794,-0.2676,-0.2687,-0.2589,-0.2563,-0.2441,-0.2475,-0.2369,-0.2305,-0.2557,-0.2554,-0.2552,0,-0.2497,-0.249,-0.2553,-0.2548,-0.2573,-0.2602,-0.2616,-0.2721,-0.2735,-0.2827,-0.2813,-0.2821,-0.2786,-0.2705,-0.2635,-0.2553,-0.2569,-0.2414,-0.2406,-0.2394,-0.2423,-0.2454,-0.2411,-0.2263,-0.2259,-0.2256,-0.2253,0,-0.2371,-0.2392,-0.2404,-0.2401,-0.2408,-0.2439,-0.2475,-0.249,-0.261,-0.2627,-0.2649,-0.264,-0.2592,-0.2468,-0.239,-0.2332,-0.2351,-0.2339,-0.2343,-0.2185,-0.2196,-0.214,-0.2363,-0.2223,-0.2226,-0.2228,-0.223,-0.2231,-0.2255,-0.2228,-0.2235,-0.2224,-0.2241,-0.2253,-0.2219,-0.2286,-0.2302,-0.2312,-0.2417,-0.237,-0.2346,-0.2211,-0.2158,-0.2037,-0.2105,-0.1985,-0.2029,-0.2064,-0.1984,-0.2139,-0.1975,-0.1977,-0.1978,-0.198,-0.1981,0,-0.2088,-0.2075,-0.2054,-0.2037,-0.1996,-0.2068,-0.2094,-0.2044,-0.2006,-0.2074,-0.2061,-0.2058,-0.1949,-0.1948,-0.1848,-0.1765,-0.1735,-0.1737,-0.176,-0.173,-0.1861,-0.183,-0.1606,-0.1606,-0.1606,-0.1606,-0.1606,-0.1606,-0.1991,-0.1913,-0.1913,-0.1795,-0.1782,-0.1686,-0.1669,-0.1631,-0.1645,-0.1606,-0.1627,-0.1692,-0.173,-0.1852,-0.1746,-0.166,-0.1639,-0.1573,-0.162,-0.1735,-0.1763,-0.1789,-0.1764,-0.1531,-0.1531,-0.1415,-0.1415,-0.1414]},{"header":{"parameterUnit":"m.s-1","parameterCategory":2,"la1":30.2991,"la2":30.254,"lo1":-89.0895,"lo2":-89.0444,"dy":0.0017,"dx":0.0017,"nx":28,"ny":28,"refTime":"2023-10-03T09:00:00:Z","depth":"0","parameterNumber":3,"parameterNumberName":"V-component_of_CURRENTS"},"data":[0,0,0,0,0,0,0,0,0,0,0,0,0,0,0,0,0,0,0,0,0,0,0,0,0,0,0,0,0,0,0,0,0,0,0,0,0,0,0,0,0,0,0,0,0,0,0,0,0,0,0,0,0,0,0,0,0,0,-0.0205,-0.0204,0,-0.0106,-0.0105,-0.0104,-0.003,-0.003,-0.0029,-0.0029,0.0116,0.0119,0.0122,0,0,0,0,0,0,0,0,0,0,0,0,0,-0.0253,-0.0253,-0.0205,-0.0204,-0.0203,-0.0106,-0.0105,-0.0103,-0.003,-0.003,-0.0029,-0.0029,0.0114,0.0118,0.0123,0,0,0,0,0,0,0,0,0,0,0,0,0,-0.0199,-0.0253,-0.0205,-0.0156,-0.0151,-0.0107,-0.0105,-0.0103,-0.003,-0.003,-0.0029,-0.0028,0.0113,0.0118,0.0123,0.0142,0,0,0.0139,0.0141,0,0,0,0,0,0,0,0,-0.0202,-0.0197,-0.0165,-0.016,-0.0154,-0.0082,-0.0069,-0.0019,-0.003,-0.0074,-0.0029,-0.0028,0.0052,0.0062,0.0082,0.0149,0.0155,0.0139,0.0143,0.0145,0.0146,0,0,0,0,0,0,0,-0.0206,-0.02,-0.0163,-0.0164,-0.0157,-0.0114,-0.0106,-0.0059,-0.0013,-0.007,-0.0065,-0.0058,0.0055,0.0077,0.0086,0.0157,0.0139,0.0144,0.0147,0.0149,0.0272,0.0272,0,0,0,0,0,0,-0.0228,-0.0205,-0.0166,-0.016,-0.018,-0.0114,-0.0105,-0.0104,-0.0014,-0.0001,-0.0059,-0.0055,0.0068,0.008,0.0091,0.0131,0.0145,0.015,0.0153,0.0272,0.0272,0.0273,0,0,0,0,0,0,-0.023,-0.0226,-0.017,-0.0182,-0.0172,-0.0115,-0.0113,-0.0102,-0.0081,-0.0007,0.0008,-0.005,0.0069,0.0084,0.0135,0.0137,0.0152,0.0157,0.0272,0.0272,0.0272,0.0203,0,0,0,0,0,0,-0.0232,-0.0227,-0.0236,-0.0184,-0.0172,-0.0152,-0.0114,-0.0101,-0.0079,-0.0074,0.0005,0.002,0.007,0.0127,0.014,0.0144,0.0161,0.0272,0.0272,0.0272,0.0205,0.0201,0.0198,0,0,0,0,0,-0.0234,-0.0251,-0.0237,-0.0232,-0.0186,-0.0153,-0.0143,-0.0098,-0.008,-0.0076,-0.0018,0.0017,0.0138,0.0131,0.0146,0.0152,0.0272,0.0272,0.0272,0.0207,0.0202,0.0198,0,0,0,0,0,0,-0.0279,-0.0244,-0.0227,-0.0234,-0.02,-0.0142,-0.0138,-0.0106,-0.0058,-0.0053,0.002,0.0038,0.0082,0.0126,0.0116,0.0189,0.021,0.0214,0.0156,0.0151,0.0148,0.0129,0.0165,0,0,0,0,0,-0.0295,-0.0299,-0.0253,-0.0261,-0.0248,-0.0195,-0.0177,-0.0147,-0.0098,-0.0076,-0.0019,0.0042,0.0096,0.0129,0.0179,0.0219,0.0261,0.0234,0.023,0.0226,0.0222,0.0281,0.0282,0.0274,0.0274,0.0274,0,0,-0.0316,-0.0298,-0.0301,-0.0271,-0.0242,-0.0228,-0.0182,-0.0164,-0.0146,-0.0068,-0.0029,0.0026,0.0101,0.0148,0.0171,0.0186,0.0251,0.0226,0.0223,0.0221,0.0281,0.0282,0.0283,0.0274,0.0274,0.0274,0,0,-0.0362,-0.0344,-0.036,-0.0337,-0.0303,-0.0263,-0.0262,-0.0206,-0.0175,-0.0133,-0.0071,-0.0014,0.0063,0.0125,0.0165,0.017,0.0222,0.0182,0.0156,0.0213,0.0214,0.0215,0.0267,0.0273,0.0187,0.0187,0.0186,0,-0.0392,-0.0399,-0.036,-0.0365,-0.035,-0.0284,-0.0288,-0.0247,-0.018,-0.0152,-0.0133,-0.0007,0.0055,0.0126,0.0131,0.0161,0.0196,0.0166,0.0207,0.0209,0.0211,0.0264,0.0272,0.0183,0.0184,0.0184,0.0184,0,-0.0445,-0.0445,-0.0453,-0.0433,-0.0411,-0.0405,-0.0344,-0.0315,-0.0268,-0.0217,-0.0148,-0.0059,0.0019,0.0048,0.0094,0.0146,0.0166,0.0187,0.0213,0.0208,0.0264,0.0274,0.0179,0.018,0.0181,0.0182,0,0,-0.0522,-0.0497,-0.0497,-0.0497,-0.0446,-0.0435,-0.0403,-0.0348,-0.0326,-0.025,-0.021,-0.0106,-0.0054,-0.0006,0.0064,0.0119,0.0172,0.0154,0.0159,0.0196,0.0291,0.0353,0.037,0.0195,0.0197,0.0198,0.0322,0,-0.0572,-0.0601,-0.0563,-0.0573,-0.0579,-0.0508,-0.0489,-0.0431,-0.036,-0.0304,-0.0199,-0.0137,-0.0074,-0.0038,0.0028,0.0138,0.0194,0.0136,0.03,0.0304,0.0353,0.0382,0.043,0.0549,0.0332,0.0333,0.0334,0,-0.0629,-0.0641,-0.0667,-0.0646,-0.0642,-0.0635,-0.0581,-0.0548,-0.0446,-0.0394,-0.03,-0.0217,-0.0105,-0.0066,0.0118,0.0075,0.0172,0.0253,0.0261,0.0349,0.0385,0.0522,0.0575,0.0721,0.035,0.0349,0.0347,0,-0.0704,-0.0704,-0.0728,-0.0723,-0.0694,-0.0689,-0.0662,-0.0579,-0.0547,-0.0439,-0.0403,-0.0263,-0.0185,-0.0051,0.0135,0.0122,0.033,0.0336,0.0483,0.0489,0.0579,0.059,0.0787,0.045,0.045,0.045,0.0449,0,-0.0767,-0.0783,-0.0769,-0.0788,-0.0817,-0.0766,-0.0762,-0.0711,-0.0632,-0.0587,-0.0454,-0.0379,-0.0181,-0.0029,0.012,0.0347,0.0327,0.0489,0.0532,0.0557,0.0564,0.0735,0.078,0.0454,0.0453,0.0452,0.0452,0,-0.0835,-0.0824,-0.0858,-0.0855,-0.0854,-0.0874,-0.0837,-0.0826,-0.0742,-0.0676,-0.0647,-0.0457,-0.0242,-0.0035,0.0208,0.034,0.0644,0.0615,0.0632,0.0674,0.0936,0.0974,0.1201,0.1306,0.0793,0.0795,0.0797,0,-0.0869,-0.0896,-0.0921,-0.0945,-0.0943,-0.0955,-0.0962,-0.0893,-0.0862,-0.0708,-0.068,-0.0464,-0.0273,0.0112,0.0383,0.0666,0.0768,0.0853,0.0842,0.0974,0.1048,0.1065,0.1137,0.0934,0.0937,0.094,0.0942,0,-0.0935,-0.0944,-0.0973,-0.103,-0.1052,-0.1071,-0.1061,-0.1054,-0.095,-0.0862,-0.0687,-0.052,-0.0126,0.025,0.0609,0.077,0.0974,0.0912,0.1055,0.1186,0.1214,0.1326,0.0818,0.0963,0.0961,0.0959,0.0958,0.0957,-0.0975,-0.1016,-0.1053,-0.1101,-0.1137,-0.116,-0.1159,-0.1107,-0.1036,-0.0858,-0.0693,-0.039,0.0128,0.0668,0.0857,0.124,0.1179,0.1339,0.1377,0.1384,0.1485,0.1022,0.1208,0.1207,0.1207,0.1206,0.1206,0,-0.1015,-0.1055,-0.1113,-0.1169,-0.1216,-0.1212,-0.1203,-0.1156,-0.1044,-0.0832,-0.0606,-0.0001,0.0504,0.0947,0.1492,0.1691,0.1729,0.1772,0.1811,0.1866,0.1475,0.1482,0.1728,0.1728,0.1728,0.1728,0.1728,0.1727,-0.1033,-0.1097,-0.1127,-0.1212,-0.1248,-0.1266,-0.125,-0.114,-0.0979,-0.0593,-0.0236,0.0065,0.0693,0.1565,0.2051,0.2086,0.2255,0.2227,0.2319,0.204,0.2002,0.1966,0.1985,0.2333,0.2334,0.2708,0.2712,0.2715]}],[{"header":{"parameterUnit":"m.s-1","parameterCategory":2,"la1":30.2991,"la2":30.254,"lo1":-89.0895,"lo2":-89.0444,"dy":0.0017,"dx":0.0017,"nx":28,"ny":28,"refTime":"2023-10-03T09:00:00:Z","depth":"2","parameterNumber":2,"parameterNumberName":"U-component_of_CURRENTS"},"data":[0,0,0,0,0,0,0,0,0,0,0,0,0,0,0,0,0,0,0,0,0,0,0,0,0,0,0,0,0,0,0,0,0,0,0,0,0,0,0,0,0,0,0,0,0,0,0,0,0,0,0,0,0,0,0,0,0,0,-0.2483,-0.2484,0,-0.2524,-0.2524,-0.2524,-0.2469,-0.2467,-0.2466,-0.2464,-0.2435,-0.2436,-0.2436,0,0,0,0,0,0,0,0,0,0,0,0,0,-0.2369,-0.2371,-0.2483,-0.2484,-0.2485,-0.2524,-0.2524,-0.2524,-0.2469,-0.2467,-0.2465,-0.2463,-0.2435,-0.2436,-0.2437,0,0,0,0,0,0,0,0,0,0,0,0,0,-0.2412,-0.2372,-0.2483,-0.2464,-0.2463,-0.2524,-0.2524,-0.2525,-0.247,-0.2467,-0.2465,-0.2462,-0.2434,-0.2435,-0.2437,-0.2496,0,0,-0.244,-0.2441,0,0,0,0,0,0,0,0,-0.241,-0.2416,-0.2466,-0.2465,-0.2464,-0.2491,-0.2473,-0.2513,-0.2471,-0.2464,-0.2464,-0.2461,-0.2451,-0.2451,-0.2461,-0.2495,-0.2494,-0.2441,-0.2441,-0.2442,-0.2442,0,0,0,0,0,0,0,-0.2407,-0.2414,-0.2496,-0.2467,-0.2466,-0.2457,-0.246,-0.2481,-0.2468,-0.2465,-0.2461,-0.2471,-0.2449,-0.246,-0.246,-0.2493,-0.2441,-0.2442,-0.2442,-0.2443,-0.2535,-0.2537,0,0,0,0,0,0,-0.241,-0.2412,-0.2495,-0.2498,-0.2433,-0.2462,-0.2465,-0.2483,-0.2469,-0.2466,-0.2473,-0.2469,-0.2459,-0.2459,-0.2459,-0.249,-0.2442,-0.2443,-0.2444,-0.2534,-0.2536,-0.2538,0,0,0,0,0,0,-0.2408,-0.2418,-0.2494,-0.2457,-0.2466,-0.2467,-0.2487,-0.2485,-0.2489,-0.2477,-0.2471,-0.2479,-0.2457,-0.2457,-0.2476,-0.249,-0.2444,-0.2445,-0.2532,-0.2534,-0.2537,-0.2578,0,0,0,0,0,0,-0.2405,-0.2417,-0.2433,-0.2458,-0.2469,-0.2534,-0.249,-0.2488,-0.2501,-0.2495,-0.2481,-0.2476,-0.2455,-0.2475,-0.2478,-0.2491,-0.2446,-0.2529,-0.2533,-0.2536,-0.2574,-0.2582,-0.2588,0,0,0,0,0,-0.2401,-0.2438,-0.2434,-0.2444,-0.249,-0.2535,-0.2541,-0.2529,-0.2504,-0.252,-0.2506,-0.2476,-0.2496,-0.2478,-0.2481,-0.2494,-0.2528,-0.2532,-0.2536,-0.2571,-0.258,-0.2588,0,0,0,0,0,0,-0.2396,-0.2438,-0.2432,-0.2479,-0.2505,-0.2527,-0.2544,-0.2539,-0.2544,-0.2531,-0.2506,-0.2502,-0.2522,-0.2515,-0.2495,-0.2532,-0.2505,-0.251,-0.2531,-0.254,-0.2546,-0.2517,-0.2447,0,0,0,0,0,-0.2406,-0.2437,-0.2474,-0.2507,-0.2524,-0.2535,-0.2552,-0.2549,-0.2559,-0.2557,-0.2549,-0.2542,-0.2547,-0.2546,-0.2553,-0.2584,-0.2553,-0.2594,-0.2601,-0.2606,-0.2586,-0.2565,-0.2566,-0.255,-0.255,-0.255,0,0,-0.2411,-0.2437,-0.2454,-0.2507,-0.2522,-0.2552,-0.2538,-0.2571,-0.2582,-0.2557,-0.2569,-0.257,-0.2562,-0.2585,-0.2593,-0.2576,-0.26,-0.2611,-0.2615,-0.2592,-0.2569,-0.257,-0.2571,-0.2553,-0.2552,-0.2552,0,0,-0.2432,-0.2464,-0.2492,-0.2521,-0.2558,-0.2573,-0.2584,-0.2615,-0.2614,-0.2646,-0.2619,-0.2625,-0.2649,-0.2631,-0.2628,-0.2682,-0.2639,-0.2695,-0.2699,-0.268,-0.268,-0.2679,-0.2656,-0.2652,-0.2694,-0.2694,-0.2694,0,-0.2429,-0.2466,-0.2508,-0.254,-0.2554,-0.2581,-0.2602,-0.2627,-0.2655,-0.2654,-0.2652,-0.2665,-0.2662,-0.2662,-0.2676,-0.2692,-0.2674,-0.2666,-0.2685,-0.2684,-0.2682,-0.2658,-0.2654,-0.2696,-0.2696,-0.2696,-0.2696,0,-0.2464,-0.2492,-0.2515,-0.2555,-0.2588,-0.2614,-0.2653,-0.2681,-0.2687,-0.2694,-0.2709,-0.2713,-0.2706,-0.2721,-0.2714,-0.271,-0.2699,-0.2696,-0.2656,-0.2686,-0.2659,-0.2654,-0.27,-0.2699,-0.2698,-0.2698,0,0,-0.2436,-0.2519,-0.252,-0.2532,-0.2589,-0.2618,-0.2657,-0.2686,-0.2697,-0.2726,-0.2726,-0.2742,-0.2733,-0.2729,-0.2725,-0.2712,-0.27,-0.2702,-0.27,-0.2662,-0.2653,-0.2579,-0.2566,-0.2702,-0.2701,-0.27,-0.2642,0,-0.2429,-0.2479,-0.2526,-0.2558,-0.2578,-0.2624,-0.2658,-0.2694,-0.2718,-0.2738,-0.2738,-0.2746,-0.274,-0.2741,-0.2727,-0.271,-0.2687,-0.2715,-0.2642,-0.264,-0.2556,-0.2557,-0.2377,-0.2303,-0.2637,-0.2636,-0.2636,0,-0.2415,-0.2454,-0.2486,-0.2543,-0.2558,-0.2587,-0.2628,-0.2666,-0.271,-0.2729,-0.2734,-0.2742,-0.2731,-0.2729,-0.2683,-0.2703,-0.2672,-0.2656,-0.2654,-0.2556,-0.2554,-0.2326,-0.2281,-0.2627,-0.2627,-0.2628,-0.2629,0,-0.2336,-0.2409,-0.2426,-0.2448,-0.2534,-0.2551,-0.2591,-0.2647,-0.2669,-0.2714,-0.2727,-0.2726,-0.2718,-0.2689,-0.2659,-0.2671,-0.2606,-0.2618,-0.2515,-0.251,-0.2323,-0.2303,-0.2566,-0.2566,-0.2566,-0.2567,-0.2567,0,-0.2284,-0.2296,-0.2393,-0.2404,-0.2427,-0.2506,-0.2527,-0.2578,-0.2633,-0.2645,-0.2703,-0.2698,-0.2707,-0.268,-0.2652,-0.2559,-0.2593,-0.2496,-0.2482,-0.2337,-0.2319,-0.2573,-0.2574,-0.2564,-0.2565,-0.2565,-0.2566,0,-0.2182,-0.2247,-0.227,-0.2361,-0.2386,-0.24,-0.2479,-0.2494,-0.2572,-0.259,-0.2602,-0.266,-0.2627,-0.262,-0.2574,-0.253,-0.2469,-0.2425,-0.2255,-0.222,-0.239,-0.2395,-0.23,-0.2296,-0.2293,-0.2291,-0.2289,0,-0.2131,-0.2135,-0.2217,-0.2224,-0.2259,-0.2303,-0.2326,-0.2434,-0.2454,-0.2548,-0.2538,-0.255,-0.2513,-0.2435,-0.2365,-0.2282,-0.2372,-0.2082,-0.2065,-0.2362,-0.2358,-0.2368,-0.2376,-0.1843,-0.1838,-0.1833,-0.183,0,-0.2022,-0.2052,-0.2077,-0.2098,-0.2119,-0.2158,-0.2206,-0.2222,-0.2342,-0.2359,-0.2376,-0.2362,-0.2312,-0.215,-0.2073,-0.2008,-0.2086,-0.1988,-0.2318,-0.1948,-0.1929,-0.1927,-0.1951,-0.179,-0.1794,-0.1797,-0.1799,-0.1801,-0.192,-0.1907,-0.1935,-0.1944,-0.1973,-0.1991,-0.1964,-0.2028,-0.2042,-0.2043,-0.214,-0.2057,-0.206,-0.1832,-0.1742,-0.1676,-0.1815,-0.1743,-0.1757,-0.1777,-0.1743,-0.1721,-0.1536,-0.1539,-0.1541,-0.1543,-0.1544,0,-0.1774,-0.1777,-0.1776,-0.1782,-0.1755,-0.1828,-0.1854,-0.1804,-0.1757,-0.1794,-0.1766,-0.1597,-0.1494,-0.1505,-0.1335,-0.1309,-0.1306,-0.1265,-0.1262,-0.1301,-0.1336,-0.1282,-0.0952,-0.095,-0.0949,-0.0948,0,0,-0.1691,-0.1638,-0.1648,-0.156,-0.156,-0.1479,-0.1461,-0.1411,-0.14,-0.1315,-0.1272,-0.1376,-0.1439,-0.1192,-0.114,-0.1015,-0.1146,-0.0963,-0.1434,-0.1467,-0.15,-0.1602,-0.1562,0,0,0,0,0]},{"header":{"parameterUnit":"m.s-1","parameterCategory":2,"la1":30.2991,"la2":30.254,"lo1":-89.0895,"lo2":-89.0444,"dy":0.0017,"dx":0.0017,"nx":28,"ny":28,"refTime":"2023-10-03T09:00:00:Z","depth":"2","parameterNumber":3,"parameterNumberName":"V-component_of_CURRENTS"},"data":[0,0,0,0,0,0,0,0,0,0,0,0,0,0,0,0,0,0,0,0,0,0,0,0,0,0,0,0,0,0,0,0,0,0,0,0,0,0,0,0,0,0,0,0,0,0,0,0,0,0,0,0,0,0,0,0,0,0,-0.0229,-0.0228,0,-0.0143,-0.0142,-0.0141,-0.0072,-0.0072,-0.0071,-0.0071,0.0062,0.0065,0.0068,0,0,0,0,0,0,0,0,0,0,0,0,0,-0.0263,-0.0263,-0.0229,-0.0228,-0.0227,-0.0144,-0.0142,-0.0141,-0.0072,-0.0072,-0.0071,-0.0071,0.0061,0.0065,0.0068,0,0,0,0,0,0,0,0,0,0,0,0,0,-0.0218,-0.0263,-0.0229,-0.0185,-0.018,-0.0144,-0.0142,-0.014,-0.0073,-0.0072,-0.0071,-0.0071,0.006,0.0064,0.0069,0.0084,0,0,0.0083,0.0085,0,0,0,0,0,0,0,0,-0.0221,-0.0216,-0.0192,-0.0188,-0.0183,-0.012,-0.0105,-0.0064,-0.0073,-0.0111,-0.0071,-0.007,0.0003,0.0013,0.003,0.009,0.0096,0.0084,0.0086,0.0088,0.009,0,0,0,0,0,0,0,-0.0224,-0.0219,-0.0193,-0.0192,-0.0186,-0.0145,-0.0139,-0.0097,-0.0056,-0.0108,-0.0103,-0.0098,0.0007,0.0025,0.0034,0.0098,0.0083,0.0088,0.009,0.0092,0.0198,0.0198,0,0,0,0,0,0,-0.0244,-0.0223,-0.0195,-0.019,-0.0203,-0.0146,-0.0138,-0.0139,-0.0057,-0.0045,-0.0098,-0.0095,0.0017,0.0028,0.0039,0.0075,0.0088,0.0093,0.0095,0.0198,0.0198,0.0198,0,0,0,0,0,0,-0.0245,-0.0243,-0.0199,-0.0206,-0.0198,-0.0147,-0.0148,-0.0138,-0.0119,-0.0051,-0.0038,-0.0091,0.0018,0.0032,0.0077,0.008,0.0095,0.0099,0.0198,0.0198,0.0198,0.0138,0,0,0,0,0,0,-0.0247,-0.0244,-0.0253,-0.0208,-0.0198,-0.0185,-0.0148,-0.0137,-0.0118,-0.0113,-0.004,-0.0027,0.002,0.007,0.0082,0.0087,0.0103,0.0198,0.0198,0.0198,0.014,0.0136,0.0133,0,0,0,0,0,-0.0248,-0.0267,-0.0254,-0.0251,-0.0212,-0.0186,-0.0177,-0.0136,-0.0119,-0.0116,-0.0063,-0.0029,0.0079,0.0074,0.0088,0.0094,0.0198,0.0198,0.0198,0.0142,0.0137,0.0133,0,0,0,0,0,0,-0.0289,-0.0261,-0.0245,-0.0255,-0.0227,-0.0176,-0.0173,-0.0145,-0.0101,-0.0096,-0.0028,-0.0011,0.0026,0.0067,0.0059,0.0124,0.0144,0.0146,0.0096,0.0092,0.0088,0.0075,0.0107,0,0,0,0,0,-0.0304,-0.031,-0.0272,-0.0281,-0.027,-0.0223,-0.0209,-0.0181,-0.0138,-0.0118,-0.0066,-0.0011,0.0037,0.0068,0.0112,0.0149,0.019,0.0162,0.0158,0.0155,0.0153,0.0215,0.0216,0.0198,0.0198,0.0198,0,0,-0.0324,-0.031,-0.0314,-0.029,-0.0265,-0.0253,-0.0212,-0.0198,-0.0181,-0.0111,-0.0075,-0.0027,0.0041,0.0082,0.0104,0.0119,0.018,0.0155,0.0151,0.0152,0.0215,0.0217,0.0219,0.0198,0.0198,0.0198,0,0,-0.0367,-0.0354,-0.037,-0.035,-0.0321,-0.0286,-0.0286,-0.0238,-0.0209,-0.0173,-0.0116,-0.0064,0.0003,0.0061,0.0098,0.01,0.0151,0.0109,0.0091,0.015,0.0152,0.0154,0.0201,0.0209,0.0116,0.0116,0.0116,0,-0.0394,-0.0403,-0.0371,-0.0376,-0.0363,-0.0305,-0.0309,-0.0273,-0.0214,-0.0187,-0.0172,-0.0058,-0.0003,0.0065,0.0067,0.0093,0.0127,0.0101,0.0145,0.0148,0.0151,0.0199,0.0208,0.0113,0.0113,0.0113,0.0114,0,-0.0445,-0.0445,-0.0453,-0.0437,-0.0418,-0.0414,-0.0359,-0.0334,-0.0292,-0.0245,-0.0181,-0.0103,-0.003,-0.0006,0.0033,0.0087,0.0103,0.0124,0.0153,0.0149,0.02,0.021,0.0109,0.011,0.0111,0.0111,0,0,-0.0515,-0.0494,-0.0494,-0.0493,-0.0448,-0.0439,-0.041,-0.0358,-0.0336,-0.0269,-0.0228,-0.0138,-0.009,-0.0046,0.0016,0.0072,0.0125,0.0102,0.0107,0.0143,0.0246,0.0278,0.0293,0.0151,0.0153,0.0154,0.027,0,-0.056,-0.0586,-0.0553,-0.0561,-0.0565,-0.0501,-0.0483,-0.0429,-0.0364,-0.031,-0.0214,-0.0156,-0.0104,-0.0071,-0.0006,0.0093,0.015,0.0091,0.025,0.0255,0.0279,0.0305,0.0268,0.037,0.028,0.0282,0.0283,0,-0.0612,-0.0622,-0.0644,-0.0622,-0.0618,-0.0611,-0.0559,-0.0528,-0.0431,-0.0383,-0.0294,-0.0218,-0.0113,-0.0082,0.0092,0.005,0.0138,0.0213,0.022,0.0278,0.0306,0.0362,0.0392,0.03,0.0299,0.0298,0.0296,0,-0.0677,-0.0676,-0.0695,-0.0691,-0.0663,-0.0658,-0.0632,-0.0554,-0.0523,-0.0419,-0.0384,-0.025,-0.018,-0.0051,0.0111,0.0101,0.0293,0.0304,0.0417,0.0419,0.0435,0.0437,0.0416,0.0416,0.0416,0.0415,0.0415,0,-0.0732,-0.0745,-0.0732,-0.0749,-0.0773,-0.0725,-0.0718,-0.0671,-0.0595,-0.0553,-0.0426,-0.0359,-0.0172,-0.0034,0.0102,0.0298,0.0295,0.0421,0.0458,0.0413,0.0411,0.0387,0.0382,0.042,0.0419,0.0418,0.0417,0,-0.0792,-0.0782,-0.0811,-0.0806,-0.0805,-0.0823,-0.0789,-0.0777,-0.0697,-0.0635,-0.0607,-0.0433,-0.0242,-0.0052,0.0173,0.029,0.0468,0.0532,0.0461,0.0488,0.0552,0.0543,0.0671,0.0674,0.0676,0.0677,0.0678,0,-0.0821,-0.0845,-0.0868,-0.089,-0.0889,-0.0899,-0.0905,-0.0839,-0.0811,-0.0669,-0.0644,-0.0453,-0.0291,0.0053,0.0286,0.0538,0.0531,0.0635,0.0616,0.0559,0.0582,0.0569,0.0558,0.0611,0.0611,0.0612,0.0612,0,-0.0879,-0.0888,-0.0915,-0.0968,-0.0989,-0.1006,-0.0998,-0.0991,-0.0895,-0.0819,-0.067,-0.0528,-0.0192,0.0098,0.0411,0.0545,0.0593,0.0655,0.0634,0.0547,0.0511,0.053,0.0519,0.0617,0.0617,0.0616,0.0616,0.0616,-0.0916,-0.0954,-0.0989,-0.1035,-0.1068,-0.1091,-0.1091,-0.1047,-0.0988,-0.0835,-0.0697,-0.0449,-0.018,0.0284,0.0497,0.0681,0.0681,0.0721,0.0716,0.0711,0.0679,0.0647,0.0773,0.0773,0.0774,0.0774,0.0774,0,-0.095,-0.0991,-0.1046,-0.11,-0.1144,-0.1141,-0.1134,-0.1093,-0.1004,-0.0828,-0.0644,-0.0325,0.0004,0.0272,0.0579,0.0764,0.073,0.0776,0.07,0.0694,0.069,0.0653,0.0743,0.0743,0.0743,0.0744,0,0,-0.0969,-0.1027,-0.1057,-0.1141,-0.1178,-0.1198,-0.1186,-0.1092,-0.0957,-0.076,-0.0564,-0.0301,0.0028,0.0241,0.0466,0.0618,0.0601,0.0618,0.0624,0.0502,0.0495,0.064,0.0576,0,0,0,0,0]}],[{"header":{"parameterUnit":"m.s-1","parameterCategory":2,"la1":30.2991,"la2":30.254,"lo1":-89.0895,"lo2":-89.0444,"dy":0.0017,"dx":0.0017,"nx":28,"ny":28,"refTime":"2023-10-03T09:00:00:Z","depth":"4","parameterNumber":2,"parameterNumberName":"U-component_of_CURRENTS"},"data":[0,0,0,0,0,0,0,0,0,0,0,0,0,0,0,0,0,0,0,0,0,0,0,0,0,0,0,0,0,0,0,0,0,0,0,0,0,0,0,0,0,0,0,0,0,0,0,0,0,0,0,0,0,0,0,0,0,0,-0.1726,-0.1727,0,-0.1814,-0.1814,-0.1815,-0.184,-0.184,-0.1839,-0.1839,-0.1904,-0.1906,-0.1907,0,0,0,0,0,0,0,0,0,0,0,0,0,-0.1596,-0.1598,-0.1726,-0.1727,-0.1729,-0.1813,-0.1814,-0.1815,-0.184,-0.184,-0.1839,-0.1839,-0.1903,-0.1905,-0.1908,0,0,0,0,0,0,0,0,0,0,0,0,0,-0.1663,-0.1599,-0.1726,-0.1753,-0.1756,-0.1813,-0.1814,-0.1816,-0.184,-0.184,-0.1839,-0.1839,-0.1902,-0.1905,-0.1908,-0.1935,0,0,-0.1917,-0.1918,0,0,0,0,0,0,0,0,-0.1659,-0.1667,-0.1748,-0.1751,-0.1755,-0.1817,-0.1792,-0.1855,-0.184,-0.1806,-0.1839,-0.1839,-0.1874,-0.188,-0.1894,-0.1938,-0.1941,-0.1917,-0.1919,-0.192,-0.1921,0,0,0,0,0,0,0,-0.1654,-0.1664,-0.1758,-0.1749,-0.1754,-0.1766,-0.1775,-0.1804,-0.1839,-0.1809,-0.1811,-0.1825,-0.1876,-0.1891,-0.1896,-0.1942,-0.1917,-0.192,-0.1922,-0.1923,-0.2059,-0.2061,0,0,0,0,0,0,-0.1648,-0.166,-0.1756,-0.1761,-0.1707,-0.1769,-0.1778,-0.1796,-0.184,-0.1847,-0.1825,-0.1826,-0.1886,-0.1892,-0.1898,-0.1978,-0.192,-0.1923,-0.1925,-0.2057,-0.2059,-0.2061,0,0,0,0,0,0,-0.1645,-0.1656,-0.1752,-0.1714,-0.1727,-0.1772,-0.1791,-0.1798,-0.1838,-0.1853,-0.1859,-0.1861,-0.1886,-0.1894,-0.195,-0.1978,-0.1924,-0.1927,-0.2055,-0.2058,-0.206,-0.2108,0,0,0,0,0,0,-0.1641,-0.1654,-0.1681,-0.1713,-0.1729,-0.1804,-0.1792,-0.18,-0.1846,-0.1848,-0.1885,-0.1889,-0.1887,-0.1946,-0.1953,-0.1982,-0.1929,-0.2053,-0.2056,-0.2059,-0.2104,-0.2112,-0.2118,0,0,0,0,0,-0.1636,-0.1671,-0.1682,-0.1695,-0.1759,-0.1806,-0.1816,-0.1843,-0.1849,-0.1876,-0.1901,-0.1889,-0.1972,-0.195,-0.1958,-0.1988,-0.2051,-0.2055,-0.2059,-0.21,-0.211,-0.2118,0,0,0,0,0,0,-0.163,-0.1678,-0.1691,-0.174,-0.1778,-0.1811,-0.1847,-0.1863,-0.1906,-0.1915,-0.1919,-0.1926,-0.1982,-0.1986,-0.1961,-0.2038,-0.2007,-0.2013,-0.2036,-0.2045,-0.2052,-0.2026,-0.1932,0,0,0,0,0,-0.1641,-0.1679,-0.1722,-0.1762,-0.1786,-0.1822,-0.185,-0.1871,-0.1906,-0.1926,-0.1952,-0.1979,-0.2003,-0.2025,-0.205,-0.21,-0.2073,-0.2124,-0.2131,-0.2137,-0.2122,-0.2112,-0.2116,-0.2075,-0.2075,-0.2075,0,0,-0.165,-0.1681,-0.1705,-0.1764,-0.1796,-0.1836,-0.1838,-0.1894,-0.1926,-0.1927,-0.199,-0.2011,-0.2024,-0.2073,-0.2099,-0.2082,-0.2139,-0.2142,-0.2147,-0.2128,-0.2117,-0.2121,-0.2124,-0.2078,-0.2077,-0.2077,0,0,-0.1672,-0.1716,-0.1751,-0.1789,-0.1848,-0.1871,-0.1892,-0.1947,-0.1975,-0.2039,-0.2039,-0.2074,-0.2134,-0.2134,-0.2142,-0.2208,-0.2178,-0.223,-0.2246,-0.2238,-0.2241,-0.2242,-0.222,-0.222,-0.2233,-0.2233,-0.2233,0,-0.168,-0.1724,-0.1769,-0.1809,-0.184,-0.1887,-0.1924,-0.1965,-0.2031,-0.2051,-0.2068,-0.2135,-0.2153,-0.2179,-0.2203,-0.2221,-0.2209,-0.221,-0.2245,-0.2246,-0.2247,-0.2223,-0.2222,-0.2236,-0.2236,-0.2236,-0.2235,0,-0.1713,-0.1761,-0.1788,-0.1847,-0.1891,-0.1935,-0.1989,-0.2041,-0.2084,-0.2111,-0.2169,-0.2196,-0.2223,-0.2245,-0.2247,-0.2268,-0.2256,-0.2253,-0.2214,-0.2253,-0.2227,-0.2225,-0.224,-0.2239,-0.2238,-0.2238,0,0,-0.1682,-0.1789,-0.1798,-0.1831,-0.1913,-0.1948,-0.2014,-0.2069,-0.2105,-0.2172,-0.2205,-0.2254,-0.2265,-0.2273,-0.2282,-0.2282,-0.2287,-0.2278,-0.2276,-0.224,-0.2264,-0.2124,-0.2107,-0.2296,-0.2296,-0.2296,-0.2245,0,-0.1686,-0.1759,-0.1813,-0.188,-0.1917,-0.1985,-0.2038,-0.21,-0.2152,-0.2203,-0.2229,-0.2271,-0.2276,-0.2298,-0.2299,-0.2295,-0.2283,-0.2301,-0.2244,-0.2241,-0.2099,-0.21,-0.2295,-0.2243,-0.2242,-0.2242,-0.2241,0,-0.1677,-0.1732,-0.18,-0.1891,-0.1915,-0.1967,-0.2048,-0.2105,-0.218,-0.2221,-0.2259,-0.2284,-0.2303,-0.2304,-0.2289,-0.2306,-0.2283,-0.2271,-0.2269,-0.2112,-0.2095,-0.2196,-0.2236,-0.2237,-0.2237,-0.2237,-0.2238,0,-0.1602,-0.1709,-0.1762,-0.1796,-0.1915,-0.1961,-0.2023,-0.2108,-0.2148,-0.2229,-0.2257,-0.2289,-0.2306,-0.2292,-0.2276,-0.229,-0.2245,-0.2257,-0.21,-0.2091,-0.2212,-0.221,-0.2223,-0.2223,-0.2223,-0.2223,-0.2223,0,-0.1555,-0.16,-0.1741,-0.1771,-0.1835,-0.1933,-0.1998,-0.2066,-0.2147,-0.2175,-0.2256,-0.226,-0.2306,-0.2292,-0.2272,-0.2163,-0.2235,-0.2081,-0.2059,-0.2236,-0.2238,-0.221,-0.2209,-0.2221,-0.2222,-0.2222,-0.2222,0,-0.1457,-0.1551,-0.162,-0.1759,-0.1803,-0.1851,-0.1974,-0.2008,-0.2108,-0.2145,-0.2169,-0.2238,-0.2213,-0.2225,-0.2198,-0.2132,-0.2064,-0.2007,-0.2184,-0.2177,-0.1919,-0.1922,-0.1819,-0.1813,-0.1809,-0.1805,-0.1801,0,-0.1409,-0.144,-0.1592,-0.163,-0.1698,-0.1789,-0.1838,-0.1966,-0.1994,-0.2101,-0.2091,-0.2118,-0.214,-0.1974,-0.202,-0.1946,-0.1927,-0.1886,-0.1904,-0.1883,-0.1874,-0.1884,-0.1893,-0.1794,-0.1793,-0.1791,-0.179,0,-0.1313,-0.1384,-0.1443,-0.1527,-0.1594,-0.1659,-0.1742,-0.1749,-0.1877,-0.1982,-0.1943,-0.1923,-0.1886,-0.1859,-0.1811,-0.1769,-0.1914,-0.1837,-0.1847,-0.1863,-0.1852,-0.185,-0.1864,-0.1774,-0.1776,-0.1778,-0.1779,0,-0.1234,-0.1251,-0.1339,-0.1396,-0.1474,-0.1501,-0.1571,-0.1599,-0.1646,-0.1771,-0.1748,-0.1785,-0.1854,-0.1764,-0.1724,-0.1665,-0.1644,-0.16,-0.1622,-0.164,-0.1607,-0.1568,-0.136,0,0,0,0,0,-0.1145,-0.1152,-0.1197,-0.1254,-0.1326,-0.1372,-0.1486,-0.1559,-0.1685,-0.1601,-0.1671,-0.1628,-0.1572,-0.1598,-0.1495,-0.1648,-0.1656,-0.1525,-0.162,-0.1683,-0.1702,-0.168,0,0,0,0,0,0,-0.1083,-0.112,-0.1147,-0.1123,-0.1128,-0.1192,-0.1259,-0.1354,-0.1323,-0.145,-0.1417,-0.1514,-0.1474,-0.1578,-0.1449,-0.1457,-0.1482,-0.1558,-0.1554,-0.1672,-0.169,-0.1705,-0.1689,0,0,0,0,0]},{"header":{"parameterUnit":"m.s-1","parameterCategory":2,"la1":30.2991,"la2":30.254,"lo1":-89.0895,"lo2":-89.0444,"dy":0.0017,"dx":0.0017,"nx":28,"ny":28,"refTime":"2023-10-03T09:00:00:Z","depth":"4","parameterNumber":3,"parameterNumberName":"V-component_of_CURRENTS"},"data":[0,0,0,0,0,0,0,0,0,0,0,0,0,0,0,0,0,0,0,0,0,0,0,0,0,0,0,0,0,0,0,0,0,0,0,0,0,0,0,0,0,0,0,0,0,0,0,0,0,0,0,0,0,0,0,0,0,0,-0.017,-0.017,0,-0.0116,-0.0115,-0.0115,-0.0065,-0.0065,-0.0064,-0.0064,0.004,0.0043,0.0045,0,0,0,0,0,0,0,0,0,0,0,0,0,-0.018,-0.018,-0.017,-0.017,-0.0169,-0.0116,-0.0115,-0.0114,-0.0065,-0.0065,-0.0064,-0.0064,0.004,0.0042,0.0045,0,0,0,0,0,0,0,0,0,0,0,0,0,-0.0154,-0.018,-0.017,-0.014,-0.0137,-0.0116,-0.0115,-0.0114,-0.0065,-0.0065,-0.0064,-0.0063,0.0039,0.0042,0.0046,0.0056,0,0,0.0057,0.0058,0,0,0,0,0,0,0,0,-0.0155,-0.0153,-0.0145,-0.0142,-0.0139,-0.0099,-0.008,-0.0055,-0.0065,-0.009,-0.0064,-0.0063,-0.0003,0.0004,0.0015,0.0061,0.0065,0.0057,0.0059,0.0061,0.0062,0,0,0,0,0,0,0,-0.0157,-0.0155,-0.0147,-0.0145,-0.0141,-0.0112,-0.0107,-0.0075,-0.0048,-0.0088,-0.0085,-0.0082,-0.0001,0.0011,0.0018,0.0067,0.0057,0.006,0.0062,0.0064,0.0142,0.0142,0,0,0,0,0,0,-0.0172,-0.0157,-0.0148,-0.0145,-0.0148,-0.0112,-0.0107,-0.011,-0.0049,-0.0041,-0.0083,-0.008,0.0005,0.0014,0.0022,0.0048,0.0061,0.0064,0.0066,0.0142,0.0142,0.0142,0,0,0,0,0,0,-0.0172,-0.0172,-0.0151,-0.0151,-0.0147,-0.0113,-0.0116,-0.011,-0.0099,-0.0047,-0.0036,-0.008,0.0006,0.0017,0.005,0.0052,0.0066,0.0069,0.0142,0.0142,0.0142,0.0095,0,0,0,0,0,0,-0.0173,-0.0172,-0.0182,-0.0152,-0.0147,-0.0145,-0.0117,-0.0109,-0.0099,-0.0095,-0.004,-0.003,0.0007,0.0045,0.0054,0.0058,0.0072,0.0142,0.0142,0.0142,0.0096,0.0093,0.009,0,0,0,0,0,-0.0173,-0.0191,-0.0182,-0.0181,-0.0161,-0.0146,-0.0141,-0.0113,-0.01,-0.01,-0.0059,-0.0032,0.005,0.0047,0.0058,0.0063,0.0142,0.0142,0.0142,0.0098,0.0093,0.009,0,0,0,0,0,0,-0.0201,-0.0187,-0.0177,-0.019,-0.0172,-0.0139,-0.014,-0.012,-0.0089,-0.0085,-0.0032,-0.0019,0.0008,0.0041,0.0036,0.0084,0.01,0.0102,0.0063,0.006,0.0057,0.005,0.0075,0,0,0,0,0,-0.0213,-0.0223,-0.0199,-0.0211,-0.0204,-0.0174,-0.0165,-0.0147,-0.0117,-0.0103,-0.0063,-0.0021,0.0015,0.004,0.0072,0.0101,0.0138,0.0111,0.0108,0.0105,0.0107,0.0166,0.0168,0.0141,0.0141,0.0141,0,0,-0.0228,-0.0222,-0.0228,-0.0217,-0.0202,-0.0197,-0.0167,-0.0161,-0.0151,-0.0096,-0.0072,-0.0036,0.0017,0.0048,0.0064,0.0078,0.013,0.0105,0.0102,0.0105,0.0166,0.0169,0.0171,0.0141,0.0141,0.0141,0,0,-0.0262,-0.0257,-0.0273,-0.0262,-0.0247,-0.0223,-0.0225,-0.0194,-0.0174,-0.015,-0.0106,-0.0066,-0.0017,0.0031,0.006,0.0059,0.0104,0.0063,0.0053,0.011,0.0113,0.0116,0.0157,0.0164,0.0071,0.0071,0.0071,0,-0.0281,-0.0294,-0.0275,-0.0283,-0.0276,-0.0238,-0.0244,-0.022,-0.018,-0.0159,-0.015,-0.0063,-0.0021,0.0036,0.0035,0.0054,0.0085,0.0063,0.0106,0.011,0.0114,0.0156,0.0164,0.0068,0.0069,0.0069,0.0069,0,-0.0322,-0.0328,-0.0336,-0.033,-0.032,-0.0321,-0.0285,-0.0268,-0.0241,-0.0205,-0.0156,-0.0096,-0.0038,-0.0021,0.0008,0.0058,0.0069,0.0088,0.0115,0.0114,0.0158,0.0167,0.0065,0.0066,0.0067,0.0067,0,0,-0.0369,-0.0366,-0.0368,-0.037,-0.0344,-0.0341,-0.0322,-0.0286,-0.0268,-0.0221,-0.0186,-0.0118,-0.008,-0.0045,0.0003,0.0055,0.0106,0.0078,0.0082,0.0116,0.022,0.0192,0.02,0.013,0.0132,0.0133,0.0235,0,-0.0402,-0.043,-0.0411,-0.0423,-0.0429,-0.0388,-0.0376,-0.0339,-0.0291,-0.0249,-0.0171,-0.0127,-0.0089,-0.0063,-0.0004,0.0078,0.013,0.0076,0.0218,0.0222,0.0196,0.021,0.0138,0.0242,0.0245,0.0246,0.0247,0,-0.0439,-0.0452,-0.0477,-0.0469,-0.0468,-0.047,-0.0434,-0.0414,-0.0338,-0.0301,-0.0228,-0.0169,-0.0079,-0.0057,0.0094,0.0055,0.013,0.0193,0.0199,0.0197,0.0212,0.0247,0.0266,0.0264,0.0263,0.0262,0.0261,0,-0.0479,-0.049,-0.0512,-0.0512,-0.0502,-0.0505,-0.0492,-0.0434,-0.0412,-0.0328,-0.03,-0.0184,-0.0128,-0.0015,0.0113,0.0106,0.027,0.0284,0.0332,0.0331,0.0347,0.0343,0.0388,0.0388,0.0387,0.0387,0.0387,0,-0.0511,-0.0528,-0.054,-0.0556,-0.0584,-0.0556,-0.0557,-0.0524,-0.0467,-0.0435,-0.0332,-0.0279,-0.0116,-0.0003,0.011,0.0248,0.0276,0.0334,0.036,0.0322,0.0314,0.0353,0.0348,0.0391,0.039,0.0389,0.0389,0,-0.0542,-0.0549,-0.0583,-0.0598,-0.0607,-0.0627,-0.0618,-0.061,-0.0552,-0.0504,-0.0482,-0.034,-0.0191,-0.0033,0.016,0.0237,0.0375,0.0416,0.0355,0.0375,0.0398,0.0389,0.0484,0.0484,0.0484,0.0484,0.0483,0,-0.0555,-0.0578,-0.0627,-0.0656,-0.0668,-0.069,-0.0703,-0.0661,-0.064,-0.0537,-0.0516,-0.037,-0.0263,-0.0003,0.0153,0.0366,0.0391,0.0453,0.0434,0.0394,0.041,0.0401,0.0393,0.0483,0.0483,0.0483,0.0483,0,-0.058,-0.0606,-0.0639,-0.0705,-0.074,-0.0765,-0.0774,-0.0764,-0.0697,-0.0655,-0.0522,-0.0376,-0.0208,-0.0006,0.0156,0.0307,0.0408,0.0453,0.0454,0.0437,0.0395,0.0409,0.0401,0.0483,0.0483,0.0483,0.0483,0,-0.0599,-0.0635,-0.0686,-0.0737,-0.0792,-0.0817,-0.0816,-0.0772,-0.0739,-0.0618,-0.0577,-0.038,-0.0258,-0.0036,0.0115,0.0257,0.0291,0.0327,0.0335,0.0337,0.0257,0.018,0.0229,0,0,0,0,0,-0.0606,-0.0648,-0.0707,-0.0765,-0.0822,-0.0844,-0.0849,-0.083,-0.0772,-0.0685,-0.0622,-0.0459,-0.0208,-0.0091,0.0048,0.0094,0.0295,0.0258,0.0334,0.0483,0.0483,0.041,0,0,0,0,0,0,-0.0613,-0.0674,-0.0706,-0.0774,-0.0815,-0.0863,-0.0865,-0.0827,-0.076,-0.0683,-0.0542,-0.0449,-0.0203,-0.0289,0.0044,0.0088,0.0149,0.0383,0.0385,0.0482,0.0483,0.0483,0.0408,0,0,0,0,0]}]]